Location: Newark
(29.9790°N, 31.1340°E)
Time: 20:48:28
(UTC+00:00)

Courier 1B Rocket - All Passes

Search period start: 29 January 2020 00:00
Search period end: 08 February 2020 00:00
Orbit: 920 x 1202 km, 28.2° (Epoch: 28 January)

Date Brightness Start Highest point End Pass type
(mag) Time Alt. Az. Time Alt. Az. Time Alt. Az.
29 Jan - 05:01:06 10° S 05:06:05 18° SSE 05:11:00 10° ESE daylight
29 Jan - 06:52:02 10° SW 06:59:19 45° SSE 07:06:18 10° E daylight
29 Jan - 08:45:19 10° WSW 08:52:54 74° S 08:59:58 10° E daylight
29 Jan - 10:39:16 10° W 10:46:34 74° S 10:53:18 10° ESE daylight
29 Jan - 12:33:23 10° W 12:39:52 43° SSW 12:45:57 10° SE daylight
29 Jan - 14:29:05 10° WSW 14:32:39 15° SSW 14:36:08 10° S daylight
30 Jan - 04:02:20 10° SSE 04:05:02 12° SSE 04:07:41 10° SE visible
30 Jan - 05:51:14 10° SW 05:58:10 35° SSE 06:04:55 10° E daylight
30 Jan - 07:44:00 10° WSW 07:51:40 66° SSE 07:58:53 10° E daylight
30 Jan - 09:37:51 10° W 09:45:22 79° S 09:52:21 10° E daylight
30 Jan - 11:31:54 10° W 11:38:54 55° SSW 11:45:22 10° ESE daylight
30 Jan - 13:26:42 10° WSW 13:31:51 23° SSW 13:36:46 10° SSE daylight
31 Jan - 04:50:47 10° SSW 04:57:03 26° SSE 05:03:14 10° E daylight
31 Jan - 06:42:48 10° WSW 06:50:25 57° SSE 06:57:44 10° E daylight
31 Jan - 08:36:26 10° W 08:44:08 79° S 08:51:20 10° E daylight
31 Jan - 10:30:28 10° W 10:37:48 66° SSW 10:44:36 10° ESE daylight
31 Jan - 12:24:50 10° W 12:30:59 33° SSW 12:36:46 10° SE daylight
01 Feb - 03:50:52 10° S 03:55:58 19° SSE 04:01:04 10° ESE visible
01 Feb - 05:41:48 10° SW 05:49:12 46° SSE 05:56:27 10° E daylight
01 Feb - 07:35:03 10° WSW 07:42:50 75° S 07:50:15 10° E daylight
01 Feb - 09:29:02 10° W 09:36:37 75° S 09:43:42 10° ESE daylight
01 Feb - 11:23:12 10° W 11:30:02 44° SSW 11:36:24 10° SE daylight
01 Feb - 13:19:01 10° WSW 13:22:52 16° SSW 13:26:36 10° S daylight
02 Feb - 02:52:07 10° SSE 02:54:55 12° SSE 02:57:44 10° SE visible
02 Feb - 04:41:03 10° SW 04:48:01 36° SSE 04:54:59 10° E daylight
02 Feb - 06:33:46 10° WSW 06:41:33 67° SSE 06:49:04 10° E daylight
02 Feb - 08:27:36 10° W 08:35:22 79° S 08:42:40 10° E daylight
02 Feb - 10:21:41 10° W 10:28:59 56° SSW 10:35:47 10° ESE daylight
02 Feb - 12:16:33 10° W 12:22:02 24° SSW 12:27:13 10° SSE daylight
03 Feb - 03:40:40 10° SSW 03:46:54 27° SSE 03:53:13 10° E visible
03 Feb - 05:32:37 10° WSW 05:40:16 58° SSE 05:47:49 10° E daylight
03 Feb - 07:26:12 10° W 07:34:03 79° S 07:41:34 10° E daylight
03 Feb - 09:20:13 10° W 09:27:49 67° SSW 09:34:57 10° ESE daylight
03 Feb - 11:14:38 10° W 11:21:06 33° SSW 11:27:11 10° SE daylight
04 Feb - 02:40:50 10° S 02:45:51 19° SSE 02:50:58 10° ESE visible
04 Feb - 04:31:41 10° SW 04:39:01 47° SSE 04:46:26 10° E daylight
04 Feb - 06:24:52 10° WSW 06:32:42 75° S 06:40:23 10° E daylight
04 Feb - 08:18:47 10° W 08:26:34 75° S 08:33:58 10° ESE daylight
04 Feb - 10:12:58 10° W 10:20:05 45° SSW 10:26:46 10° SE daylight
04 Feb - 12:08:47 10° WSW 12:13:01 16° SSW 12:17:04 10° S daylight
05 Feb - 01:42:14 10° SSE 01:44:51 12° SE 01:47:31 10° SE visible
05 Feb - 03:31:01 10° SW 03:37:52 36° SSE 03:44:53 10° E visible
05 Feb - 05:23:38 10° WSW 05:31:23 68° SSE 05:39:06 10° E daylight
05 Feb - 07:17:23 10° W 07:25:15 79° S 07:32:51 10° E daylight
05 Feb - 09:11:26 10° W 09:18:58 56° SSW 09:26:05 10° ESE daylight
05 Feb - 11:06:19 10° W 11:12:07 25° SSW 11:17:37 10° SSE daylight
06 Feb - 02:30:43 10° SSW 02:36:47 27° SSE 02:43:03 10° E visible
06 Feb - 04:22:34 10° WSW 04:30:05 58° SSE 04:37:46 10° E daylight
06 Feb - 06:16:02 10° W 06:23:53 80° S 06:31:39 10° E daylight
06 Feb - 08:09:58 10° W 08:17:44 67° SSW 08:25:11 10° ESE daylight
06 Feb - 10:04:23 10° W 10:11:07 34° SSW 10:17:31 10° SE daylight
06 Feb - 12:03:12 10° SW 12:03:58 10° SW 12:04:43 10° SSW daylight
07 Feb - 01:30:59 10° S 01:35:47 19° SSE 01:40:44 10° ESE visible
07 Feb - 03:21:43 10° SW 03:28:53 47° SSE 03:36:18 10° E visible
07 Feb - 05:14:46 10° WSW 05:22:32 76° S 05:30:22 10° E daylight
07 Feb - 07:08:35 10° W 07:16:26 75° S 07:24:05 10° ESE daylight
07 Feb - 09:02:43 10° W 09:10:02 45° SSW 09:17:01 10° SE daylight
07 Feb - 10:58:30 10° WSW 11:03:03 17° SSW 11:07:27 10° S daylight
